Left ArrowRight Arrow

44.8408, -93.29828

Hourly Observations for June 23, 2024

Temp ( °F °C ) Dew Point ( °F °C ) Humidity (%) Winds ( mph kmh ) Pressure ( in mb ) Visibility ( mi km ) Precip ( " mm )
12:07 am 00:07 Cloudy 59 15 55 12.8 87 87 NNW 12 19 29.83 1010 10 16 0.00 0.00
12:53 am 00:53 Cloudy 57 13.9 54 12.2 89 89 NNW 12 19 29.84 1010 10 16 0.00 0.00
1:53 am 01:53 Cloudy 56 13.3 52 11.1 87 87 N 9 15 29.85 1011 10 16 0.00 0.00
2:23 am 02:23 Cloudy 56 13.3 52 11.1 87 87 WNW 7 11 29.86 1011 10 16 0.00 0.00
2:53 am 02:53 Mostly Cloudy 56 13.3 51 10.6 84 84 NNW 5 7 29.85 1011 10 16 0.00 0.00
3:00 am 03:00 Partly Cloudy 56 13.3 51 10.6 84 84 NNW 6 9 29.86 1011 10 16 0.00 0.00
3:53 am 03:53 Clear 55 12.8 51 10.6 86 86 WNW 6 9 29.86 1011 10 16 0.00 0.00
4:53 am 04:53 Clear 55 12.8 52 11.1 89 89 WNW 5 7 29.86 1011 10 16 0.00 0.00
5:53 am 05:53 Sunny 56 13.3 53 11.7 90 90 Calm 29.87 1012 10 16 0.00 0.00
6:53 am 06:53 Partly Cloudy 57 13.9 54 12.2 89 89 Calm 29.88 1012 10 16 0.00 0.00
7:53 am 07:53 Mostly Cloudy 61 16.1 55 12.8 81 81 Calm 29.88 1012 10 16 0.00 0.00
8:53 am 08:53 Partly Cloudy 64 17.8 58 14.4 80 80 VRB 3 6 29.88 1012 10 16 0.00 0.00
9:34 am 09:34 Mostly Cloudy 68 20 60 15.6 76 76 VRB 6 9 29.86 1011 10 16 0.00 0.00
9:53 am 09:53 Mostly Cloudy 70 21.1 61 16.1 73 73 WSW 6 9 29.87 1012 10 16 0.00 0.00
10:53 am 10:53 Mostly Cloudy 72 22.2 62 16.7 71 71 W 5 7 29.86 1011 10 16 0.00 0.00
11:53 am 11:53 Mostly Cloudy 76 24.4 64 17.8 67 67 NW 8 13 29.87 1011 10 16 0.00 0.00
12:09 pm 12:09 Mostly Cloudy 77 25 63 17.2 62 62 WNW 10 17 29.84 1011 10 16 0.00 0.00
12:53 pm 12:53 Partly Cloudy 78 25.6 62 16.7 58 58 NNW 13 20 29.86 1011 10 16 0.00 0.00
1:53 pm 13:53 Mostly Sunny 80 26.7 58 14.4 47 47 WNW 8 13 29.85 1011 10 16 0.00 0.00
2:53 pm 14:53 Partly Cloudy 82 27.8 57 13.9 43 43 WNW 9 15 29.84 1011 10 16 0.00 0.00
3:53 pm 15:53 Partly Cloudy 83 28.3 56 13.3 40 40 WNW 16 26 29.83 1010 10 16 0.00 0.00
4:53 pm 16:53 Partly Cloudy 84 28.9 55 12.8 37 37 W 14 22 29.83 1010 10 16 0.00 0.00
5:53 pm 17:53 Partly Cloudy 83 28.3 54 12.2 37 37 WNW 18 30 29.83 1010 10 16 0.00 0.00
6:53 pm 18:53 Mostly Cloudy 83 28.3 56 13.3 40 40 NW 15 24 29.83 1010 10 16 0.00 0.00
7:53 pm 19:53 Partly Cloudy 80 26.7 57 13.9 45 45 WNW 12 19 29.84 1010 10 16 0.00 0.00
8:53 pm 20:53 Mostly Sunny 78 25.6 57 13.9 48 48 NW 7 11 29.84 1011 10 16 0.00 0.00
9:53 pm 21:53 Clear 76 24.4 58 14.4 54 54 WNW 5 7 29.85 1011 10 16 0.00 0.00
10:53 pm 22:53 Clear 73 22.8 60 15.6 64 64 W 3 6 29.87 1011 10 16 0.00 0.00
11:53 pm 23:53 Clear 72 22.2 60 15.6 66 66 Calm 29.87 1012 10 16 0.00 0.00

Powered by Vaisala Xweather